Year,Month,Day,Hour,Minute,Value (Times are PST for temperature in C)
2009,08,30,00,00,16.10
2009,08,30,00,01,16.10
2009,08,30,00,02,16.10
2009,08,30,00,03,16.10
2009,08,30,00,04,16.10
2009,08,30,00,05,16.10
2009,08,30,00,06,16.10
2009,08,30,00,07,16.20
2009,08,30,00,08,16.20
2009,08,30,00,09,16.20
2009,08,30,00,10,16.20
2009,08,30,00,11,16.20
2009,08,30,00,12,16.20
2009,08,30,00,13,16.20
2009,08,30,00,14,16.30
2009,08,30,00,15,16.30
2009,08,30,00,16,16.30
2009,08,30,00,17,16.30
2009,08,30,00,18,16.30
2009,08,30,00,19,16.30
2009,08,30,00,20,16.40
2009,08,30,00,21,16.30
2009,08,30,00,22,16.30
2009,08,30,00,23,16.30
2009,08,30,00,24,16.30
2009,08,30,00,25,16.30
2009,08,30,00,26,16.30
2009,08,30,00,27,16.30
2009,08,30,00,28,16.30
2009,08,30,00,29,16.30
2009,08,30,00,30,16.30
2009,08,30,00,31,16.30
2009,08,30,00,32,16.30
2009,08,30,00,33,16.30
2009,08,30,00,34,16.30
2009,08,30,00,35,16.30
2009,08,30,00,36,16.20
2009,08,30,00,37,16.20
2009,08,30,00,38,16.20
2009,08,30,00,39,16.20
2009,08,30,00,40,16.20
2009,08,30,00,41,16.20
2009,08,30,00,42,16.20
2009,08,30,00,43,16.20
2009,08,30,00,44,16.20
2009,08,30,00,45,16.20
2009,08,30,00,46,16.20
2009,08,30,00,47,16.20
2009,08,30,00,48,16.20
2009,08,30,00,49,16.20
2009,08,30,00,50,16.20
2009,08,30,00,51,16.20
2009,08,30,00,52,16.20
2009,08,30,00,53,16.20
2009,08,30,00,54,16.20
2009,08,30,00,55,16.10
2009,08,30,00,56,16.10
2009,08,30,00,57,16.10
2009,08,30,00,58,16.10
2009,08,30,00,59,16.10
2009,08,30,01,00,16.10
2009,08,30,01,01,16.00
2009,08,30,01,02,16.00
2009,08,30,01,03,16.00
2009,08,30,01,04,15.90
2009,08,30,01,05,15.90
2009,08,30,01,06,15.90
2009,08,30,01,07,15.90
2009,08,30,01,08,15.90
2009,08,30,01,09,16.00
2009,08,30,01,10,16.10
2009,08,30,01,11,16.10
2009,08,30,01,12,16.10
2009,08,30,01,13,16.20
2009,08,30,01,14,16.20
2009,08,30,01,15,16.20
2009,08,30,01,16,16.20
2009,08,30,01,17,16.20
2009,08,30,01,18,16.20
2009,08,30,01,19,16.20
2009,08,30,01,20,16.20
2009,08,30,01,21,16.20
2009,08,30,01,22,16.30
2009,08,30,01,23,16.30
2009,08,30,01,24,16.30
2009,08,30,01,25,16.30
2009,08,30,01,26,16.30
2009,08,30,01,27,16.30
2009,08,30,01,28,16.30
2009,08,30,01,29,16.20
2009,08,30,01,30,16.20
2009,08,30,01,31,16.20
2009,08,30,01,32,16.20
2009,08,30,01,33,16.20
2009,08,30,01,34,16.20
2009,08,30,01,35,16.20
2009,08,30,01,36,16.20
2009,08,30,01,37,16.20
2009,08,30,01,38,16.20
2009,08,30,01,39,16.20
2009,08,30,01,40,16.20
2009,08,30,01,41,16.20
2009,08,30,01,42,16.20
2009,08,30,01,43,16.20
2009,08,30,01,44,16.20
2009,08,30,01,45,16.20
2009,08,30,01,46,16.20
2009,08,30,01,47,16.20
2009,08,30,01,48,16.20
2009,08,30,01,49,16.20
2009,08,30,01,50,16.20
2009,08,30,01,51,16.20
2009,08,30,01,52,16.20
2009,08,30,01,53,16.20
2009,08,30,01,54,16.20
2009,08,30,01,55,16.20
2009,08,30,01,56,16.20
2009,08,30,01,57,16.20
2009,08,30,01,58,16.20
2009,08,30,01,59,16.20
2009,08,30,02,00,16.20
2009,08,30,02,01,16.20
2009,08,30,02,02,16.20
2009,08,30,02,03,16.20
2009,08,30,02,04,16.20
2009,08,30,02,05,16.10
2009,08,30,02,06,16.10
2009,08,30,02,07,16.10
2009,08,30,02,08,16.10
2009,08,30,02,09,16.10
2009,08,30,02,10,16.10
2009,08,30,02,11,16.10
2009,08,30,02,12,16.10
2009,08,30,02,13,16.10
2009,08,30,02,14,16.00
2009,08,30,02,15,16.00
2009,08,30,02,16,16.00
2009,08,30,02,17,16.00
2009,08,30,02,18,16.00
2009,08,30,02,19,16.00
2009,08,30,02,20,15.90
2009,08,30,02,21,15.90
2009,08,30,02,22,15.90
2009,08,30,02,23,16.00
2009,08,30,02,24,16.00
2009,08,30,02,25,16.00
2009,08,30,02,26,16.00
2009,08,30,02,27,16.10
2009,08,30,02,28,16.10
2009,08,30,02,29,16.10
2009,08,30,02,30,16.10
2009,08,30,02,31,16.10
2009,08,30,02,32,16.20
2009,08,30,02,33,16.20
2009,08,30,02,34,16.20
2009,08,30,02,35,16.20
2009,08,30,02,36,16.10
2009,08,30,02,37,16.10
2009,08,30,02,38,16.10
2009,08,30,02,39,16.10
2009,08,30,02,40,16.10
2009,08,30,02,41,16.10
2009,08,30,02,42,16.10
2009,08,30,02,43,16.10
2009,08,30,02,44,16.10
2009,08,30,02,45,16.10
2009,08,30,02,46,16.10
2009,08,30,02,47,16.10
2009,08,30,02,48,16.10
2009,08,30,02,49,16.10
2009,08,30,02,50,16.00
2009,08,30,02,51,16.00
2009,08,30,02,52,16.00
2009,08,30,02,53,16.00
2009,08,30,02,54,16.00
2009,08,30,02,55,16.00
2009,08,30,02,56,16.00
2009,08,30,02,57,16.00
2009,08,30,02,58,15.90
2009,08,30,02,59,15.90
2009,08,30,03,00,15.90
2009,08,30,03,01,16.00
2009,08,30,03,02,16.00
2009,08,30,03,03,16.00
2009,08,30,03,04,16.10
2009,08,30,03,05,16.10
2009,08,30,03,06,16.10
2009,08,30,03,07,16.10
2009,08,30,03,08,16.10
2009,08,30,03,09,16.10
2009,08,30,03,10,16.10
2009,08,30,03,11,16.20
2009,08,30,03,12,16.20
2009,08,30,03,13,16.20
2009,08,30,03,14,16.20
2009,08,30,03,15,16.20
2009,08,30,03,16,16.20
2009,08,30,03,17,16.20
2009,08,30,03,18,16.20
2009,08,30,03,19,16.20
2009,08,30,03,20,16.20
2009,08,30,03,21,16.20
2009,08,30,03,22,16.20
2009,08,30,03,23,16.20
2009,08,30,03,24,16.20
2009,08,30,03,25,16.20
2009,08,30,03,26,16.20
2009,08,30,03,27,16.30
2009,08,30,03,28,16.30
2009,08,30,03,29,16.30
2009,08,30,03,30,16.30
2009,08,30,03,31,16.30
2009,08,30,03,32,16.30
2009,08,30,03,33,16.30
2009,08,30,03,34,16.30
2009,08,30,03,35,16.30
2009,08,30,03,36,16.30
2009,08,30,03,37,16.30
2009,08,30,03,38,16.30
2009,08,30,03,39,16.30
2009,08,30,03,40,16.30
2009,08,30,03,41,16.30
2009,08,30,03,42,16.20
2009,08,30,03,43,16.20
2009,08,30,03,44,16.20
2009,08,30,03,45,16.20
2009,08,30,03,46,16.20
2009,08,30,03,47,16.20
2009,08,30,03,48,16.20
2009,08,30,03,49,16.20
2009,08,30,03,50,16.20
2009,08,30,03,51,16.20
2009,08,30,03,52,16.20
2009,08,30,03,53,16.20
2009,08,30,03,54,16.20
2009,08,30,03,55,16.20
2009,08,30,03,56,16.20
2009,08,30,03,57,16.20
2009,08,30,03,58,16.20
2009,08,30,03,59,16.20
2009,08,30,04,00,16.10
2009,08,30,04,01,16.10
2009,08,30,04,02,16.10
2009,08,30,04,03,16.10
2009,08,30,04,04,16.10
2009,08,30,04,05,16.10
2009,08,30,04,06,16.10
2009,08,30,04,07,16.10
2009,08,30,04,08,16.10
2009,08,30,04,09,16.10
2009,08,30,04,10,16.10
2009,08,30,04,11,16.10
2009,08,30,04,12,16.10
2009,08,30,04,13,16.00
2009,08,30,04,14,16.00
2009,08,30,04,15,16.00
2009,08,30,04,16,16.00
2009,08,30,04,17,16.00
2009,08,30,04,18,15.90
2009,08,30,04,19,15.90
2009,08,30,04,20,15.90
2009,08,30,04,21,15.90
2009,08,30,04,22,15.90
2009,08,30,04,23,15.90
2009,08,30,04,24,15.90
2009,08,30,04,25,16.00
2009,08,30,04,26,16.00
2009,08,30,04,27,16.00
2009,08,30,04,28,16.00
2009,08,30,04,29,16.00
2009,08,30,04,30,16.00
2009,08,30,04,31,16.00
2009,08,30,04,32,16.00
2009,08,30,04,33,16.00
2009,08,30,04,34,16.00
2009,08,30,04,35,16.00
2009,08,30,04,36,15.90
2009,08,30,04,37,15.90
2009,08,30,04,38,15.90
2009,08,30,04,39,15.90
2009,08,30,04,40,15.90
2009,08,30,04,41,15.90
2009,08,30,04,42,15.90
2009,08,30,04,43,15.90
2009,08,30,04,44,15.90
2009,08,30,04,45,15.80
2009,08,30,04,46,15.80
2009,08,30,04,47,15.80
2009,08,30,04,48,15.90
2009,08,30,04,49,15.90
2009,08,30,04,50,15.90
2009,08,30,04,51,15.90
2009,08,30,04,52,15.90
2009,08,30,04,53,15.90
2009,08,30,04,54,15.90
2009,08,30,04,55,15.90
2009,08,30,04,56,15.90
2009,08,30,04,57,15.90
2009,08,30,04,58,15.90
2009,08,30,04,59,15.90
2009,08,30,05,00,15.90
2009,08,30,05,01,15.90
2009,08,30,05,02,15.90
2009,08,30,05,03,15.90
2009,08,30,05,04,15.90
2009,08,30,05,05,15.80
2009,08,30,05,06,15.80
2009,08,30,05,07,15.80
2009,08,30,05,08,15.80
2009,08,30,05,09,15.80
2009,08,30,05,10,15.80
2009,08,30,05,11,15.80
2009,08,30,05,12,15.80
2009,08,30,05,13,15.80
2009,08,30,05,14,15.70
2009,08,30,05,15,15.70
2009,08,30,05,16,15.70
2009,08,30,05,17,15.70
2009,08,30,05,18,15.70
2009,08,30,05,19,15.70
2009,08,30,05,20,15.70
2009,08,30,05,21,15.70
2009,08,30,05,22,15.60
2009,08,30,05,23,15.60
2009,08,30,05,24,15.60
2009,08,30,05,25,15.60
2009,08,30,05,26,15.60
2009,08,30,05,27,15.70
2009,08,30,05,28,15.60
2009,08,30,05,29,15.60
2009,08,30,05,30,15.60
2009,08,30,05,31,15.60
2009,08,30,05,32,15.60
2009,08,30,05,33,15.60
2009,08,30,05,34,15.60
2009,08,30,05,35,15.60
2009,08,30,05,36,15.60
2009,08,30,05,37,15.60
2009,08,30,05,38,15.60
2009,08,30,05,39,15.60
2009,08,30,05,40,15.60
2009,08,30,05,41,15.60
2009,08,30,05,42,15.60
2009,08,30,05,43,15.50
2009,08,30,05,44,15.50
2009,08,30,05,45,15.50
2009,08,30,05,46,15.50
2009,08,30,05,47,15.50
2009,08,30,05,48,15.50
2009,08,30,05,49,15.40
2009,08,30,05,50,15.40
2009,08,30,05,51,15.40
2009,08,30,05,52,15.40
2009,08,30,05,53,15.40
2009,08,30,05,54,15.40
2009,08,30,05,55,15.40
2009,08,30,05,56,15.30
2009,08,30,05,57,15.30
2009,08,30,05,58,15.30
2009,08,30,05,59,15.30
2009,08,30,06,00,15.30
2009,08,30,06,01,15.30
2009,08,30,06,02,15.30
2009,08,30,06,03,15.30
2009,08,30,06,04,15.30
2009,08,30,06,05,15.30
2009,08,30,06,06,15.30
2009,08,30,06,07,15.20
2009,08,30,06,08,15.20
2009,08,30,06,09,15.20
2009,08,30,06,10,15.20
2009,08,30,06,11,15.20
2009,08,30,06,12,15.20
2009,08,30,06,13,15.20
2009,08,30,06,14,15.20
2009,08,30,06,15,15.20
2009,08,30,06,16,15.20
2009,08,30,06,17,15.20
2009,08,30,06,18,15.20
2009,08,30,06,19,15.20
2009,08,30,06,20,15.20
2009,08,30,06,21,15.20
2009,08,30,06,22,15.20
2009,08,30,06,23,15.20
2009,08,30,06,24,15.20
2009,08,30,06,25,15.20
2009,08,30,06,26,15.20
2009,08,30,06,27,15.20
2009,08,30,06,28,15.20
2009,08,30,06,29,15.10
2009,08,30,06,30,15.10
2009,08,30,06,31,15.10
2009,08,30,06,32,15.10
2009,08,30,06,33,15.10
2009,08,30,06,34,15.10
2009,08,30,06,35,15.10
2009,08,30,06,36,15.00
2009,08,30,06,37,15.00
2009,08,30,06,38,15.00
2009,08,30,06,39,15.00
2009,08,30,06,40,15.00
2009,08,30,06,41,15.00
2009,08,30,06,42,15.00
2009,08,30,06,43,15.00
2009,08,30,06,44,15.00
2009,08,30,06,45,15.00
2009,08,30,06,46,15.00
2009,08,30,06,47,15.00
2009,08,30,06,48,15.00
2009,08,30,06,49,15.00
2009,08,30,06,50,15.00
2009,08,30,06,51,15.00
2009,08,30,06,52,15.00
2009,08,30,06,53,15.00
2009,08,30,06,54,15.00
2009,08,30,06,55,15.00
2009,08,30,06,56,15.00
2009,08,30,06,57,15.00
2009,08,30,06,58,15.00
2009,08,30,06,59,15.00
2009,08,30,07,00,15.00
2009,08,30,07,01,15.00
2009,08,30,07,02,15.00
2009,08,30,07,03,15.00
2009,08,30,07,04,15.00
2009,08,30,07,05,15.00
2009,08,30,07,06,15.00
2009,08,30,07,07,15.00
2009,08,30,07,08,15.00
2009,08,30,07,09,15.00
2009,08,30,07,10,15.00
2009,08,30,07,11,15.00
2009,08,30,07,12,15.00
2009,08,30,07,13,14.90
2009,08,30,07,14,14.90
2009,08,30,07,15,14.90
2009,08,30,07,16,14.90
2009,08,30,07,17,14.90
2009,08,30,07,18,14.90
2009,08,30,07,19,14.90
2009,08,30,07,20,14.90
2009,08,30,07,21,15.00
2009,08,30,07,22,15.00
2009,08,30,07,23,15.00
2009,08,30,07,24,15.00
2009,08,30,07,25,15.00
2009,08,30,07,26,15.00
2009,08,30,07,27,15.00
2009,08,30,07,28,15.00
2009,08,30,07,29,15.00
2009,08,30,07,30,15.00
2009,08,30,07,31,15.10
2009,08,30,07,32,15.10
2009,08,30,07,33,15.20
2009,08,30,07,34,15.20
2009,08,30,07,35,15.30
2009,08,30,07,36,15.30
2009,08,30,07,37,15.30
2009,08,30,07,38,15.30
2009,08,30,07,39,15.30
2009,08,30,07,40,15.40
2009,08,30,07,41,15.40
2009,08,30,07,42,15.40
2009,08,30,07,43,15.40
2009,08,30,07,44,15.40
2009,08,30,07,45,15.50
2009,08,30,07,46,15.50
2009,08,30,07,47,15.50
2009,08,30,07,48,15.50
2009,08,30,07,49,15.60
2009,08,30,07,50,15.60
2009,08,30,07,51,15.60
2009,08,30,07,52,15.60
2009,08,30,07,53,15.60
2009,08,30,07,54,15.70
2009,08,30,07,55,15.70
2009,08,30,07,56,15.70
2009,08,30,07,57,15.70
2009,08,30,07,58,15.70
2009,08,30,07,59,15.70
2009,08,30,08,00,15.70
2009,08,30,08,01,15.80
2009,08,30,08,02,15.80
2009,08,30,08,03,15.80
2009,08,30,08,04,15.80
2009,08,30,08,05,15.80
2009,08,30,08,06,15.80
2009,08,30,08,07,15.80
2009,08,30,08,08,15.80
2009,08,30,08,09,15.80
2009,08,30,08,10,15.80
2009,08,30,08,11,15.90
2009,08,30,08,12,15.90
2009,08,30,08,13,15.90
2009,08,30,08,14,15.90
2009,08,30,08,15,15.90
2009,08,30,08,16,15.90
2009,08,30,08,17,15.90
2009,08,30,08,18,15.90
2009,08,30,08,19,15.90
2009,08,30,08,20,15.90
2009,08,30,08,21,15.90
2009,08,30,08,22,15.90
2009,08,30,08,23,15.90
2009,08,30,08,24,15.90
2009,08,30,08,25,15.90
2009,08,30,08,26,15.90
2009,08,30,08,27,15.90
2009,08,30,08,28,15.90
2009,08,30,08,29,15.90
2009,08,30,08,30,15.90
2009,08,30,08,31,15.90
2009,08,30,08,32,15.90
2009,08,30,08,33,15.90
2009,08,30,08,34,16.00
2009,08,30,08,35,16.00
2009,08,30,08,36,16.00
2009,08,30,08,37,16.00
2009,08,30,08,38,16.00
2009,08,30,08,39,16.00
2009,08,30,08,40,16.00
2009,08,30,08,41,16.00
2009,08,30,08,42,16.00
2009,08,30,08,43,16.00
2009,08,30,08,44,16.00
2009,08,30,08,45,16.10
2009,08,30,08,46,16.10
2009,08,30,08,47,16.10
2009,08,30,08,48,16.10
2009,08,30,08,49,16.20
2009,08,30,08,50,16.20
2009,08,30,08,51,16.20
2009,08,30,08,52,16.20
2009,08,30,08,53,16.20
2009,08,30,08,54,16.20
2009,08,30,08,55,16.30
2009,08,30,08,56,16.30
2009,08,30,08,57,16.30
2009,08,30,08,58,16.30
2009,08,30,08,59,16.40
2009,08,30,09,00,16.40
2009,08,30,09,01,16.40
2009,08,30,09,02,16.50
2009,08,30,09,03,16.50
2009,08,30,09,04,16.60
2009,08,30,09,05,16.60
2009,08,30,09,06,16.60
2009,08,30,09,07,16.60
2009,08,30,09,08,16.60
2009,08,30,09,09,16.70
2009,08,30,09,10,16.70
2009,08,30,09,11,16.70
2009,08,30,09,12,16.70
2009,08,30,09,13,16.70
2009,08,30,09,14,16.70
2009,08,30,09,15,16.80
2009,08,30,09,16,16.80
2009,08,30,09,17,16.80
2009,08,30,09,18,16.80
2009,08,30,09,19,16.80
2009,08,30,09,20,16.80
2009,08,30,09,21,16.90
2009,08,30,09,22,16.90
2009,08,30,09,23,17.00
2009,08,30,09,24,17.00
2009,08,30,09,25,17.10
2009,08,30,09,26,17.10
2009,08,30,09,27,17.10
2009,08,30,09,28,17.10
2009,08,30,09,29,17.10
2009,08,30,09,30,17.20
2009,08,30,09,31,17.20
2009,08,30,09,32,17.20
2009,08,30,09,33,17.20
2009,08,30,09,34,17.20
2009,08,30,09,35,17.20
2009,08,30,09,36,17.30
2009,08,30,09,37,17.30
2009,08,30,09,38,17.30
2009,08,30,09,39,17.40
2009,08,30,09,40,17.40
2009,08,30,09,41,17.40
2009,08,30,09,42,17.50
2009,08,30,09,43,17.50
2009,08,30,09,44,17.60
2009,08,30,09,45,17.60
2009,08,30,09,46,17.60
2009,08,30,09,47,17.60
2009,08,30,09,48,17.60
2009,08,30,09,49,17.60
2009,08,30,09,50,17.70
2009,08,30,09,51,17.70
2009,08,30,09,52,17.80
2009,08,30,09,53,17.80
2009,08,30,09,54,17.80
2009,08,30,09,55,17.80
2009,08,30,09,56,17.70
2009,08,30,09,57,17.70
2009,08,30,09,58,17.70
2009,08,30,09,59,17.70
2009,08,30,10,00,17.70
2009,08,30,10,01,17.70
2009,08,30,10,02,17.70
2009,08,30,10,03,17.60
2009,08,30,10,04,17.70
2009,08,30,10,05,17.70
2009,08,30,10,06,17.70
2009,08,30,10,07,17.70
2009,08,30,10,08,17.70
2009,08,30,10,09,17.70
2009,08,30,10,10,17.70
2009,08,30,10,11,17.70
2009,08,30,10,12,17.60
2009,08,30,10,13,17.60
2009,08,30,10,14,17.70
2009,08,30,10,15,17.70
2009,08,30,10,16,17.70
2009,08,30,10,17,17.70
2009,08,30,10,18,17.70
2009,08,30,10,19,17.70
2009,08,30,10,20,17.70
2009,08,30,10,21,17.60
2009,08,30,10,22,17.50
2009,08,30,10,23,17.50
2009,08,30,10,24,17.50
2009,08,30,10,25,17.50
2009,08,30,10,26,17.50
2009,08,30,10,27,17.50
2009,08,30,10,28,17.60
2009,08,30,10,29,17.60
2009,08,30,10,30,17.70
2009,08,30,10,31,17.70
2009,08,30,10,32,17.70
2009,08,30,10,33,17.60
2009,08,30,10,34,17.60
2009,08,30,10,35,17.60
2009,08,30,10,36,17.60
2009,08,30,10,37,17.60
2009,08,30,10,38,17.70
2009,08,30,10,39,17.70
2009,08,30,10,40,17.70
2009,08,30,10,41,17.70
2009,08,30,10,42,17.70
2009,08,30,10,43,17.80
2009,08,30,10,44,17.80
2009,08,30,10,45,17.80
2009,08,30,10,46,17.80
2009,08,30,10,47,17.80
2009,08,30,10,48,17.90
2009,08,30,10,49,17.90
2009,08,30,10,50,17.90
2009,08,30,10,51,17.90
2009,08,30,10,52,17.90
2009,08,30,10,53,18.00
2009,08,30,10,54,18.00
2009,08,30,10,55,18.00
2009,08,30,10,56,18.00
2009,08,30,10,57,18.00
2009,08,30,10,58,17.90
2009,08,30,10,59,17.90
2009,08,30,11,00,18.00
2009,08,30,11,01,18.10
2009,08,30,11,02,18.20
2009,08,30,11,03,18.20
2009,08,30,11,04,18.20
2009,08,30,11,05,18.20
2009,08,30,11,06,18.20
2009,08,30,11,07,18.20
2009,08,30,11,08,18.20
2009,08,30,11,09,18.20
2009,08,30,11,10,18.20
2009,08,30,11,11,18.20
2009,08,30,11,12,18.20
2009,08,30,11,13,18.20
2009,08,30,11,14,18.10
2009,08,30,11,15,18.10
2009,08,30,11,16,18.00
2009,08,30,11,17,18.00
2009,08,30,11,18,18.00
2009,08,30,11,19,18.00
2009,08,30,11,20,18.00
2009,08,30,11,21,18.10
2009,08,30,11,22,18.20
2009,08,30,11,23,18.20
2009,08,30,11,24,18.30
2009,08,30,11,25,18.30
2009,08,30,11,26,18.30
2009,08,30,11,27,18.30
2009,08,30,11,28,18.30
2009,08,30,11,29,18.30
2009,08,30,11,30,18.40
2009,08,30,11,31,18.50
2009,08,30,11,32,18.50
2009,08,30,11,33,18.50
2009,08,30,11,34,18.40
2009,08,30,11,35,18.40
2009,08,30,11,36,18.50
2009,08,30,11,37,18.50
2009,08,30,11,38,18.60
2009,08,30,11,39,18.70
2009,08,30,11,40,18.80
2009,08,30,11,41,18.90
2009,08,30,11,42,18.90
2009,08,30,11,43,19.00
2009,08,30,11,44,19.10
2009,08,30,11,45,19.20
2009,08,30,11,46,19.10
2009,08,30,11,47,19.00
2009,08,30,11,48,18.90
2009,08,30,11,49,18.90
2009,08,30,11,50,18.90
2009,08,30,11,51,19.00
2009,08,30,11,52,19.00
2009,08,30,11,53,18.90
2009,08,30,11,54,18.90
2009,08,30,11,55,18.90
2009,08,30,11,56,18.90
2009,08,30,11,57,19.00
2009,08,30,11,58,19.10
2009,08,30,11,59,19.20
2009,08,30,12,00,19.20
2009,08,30,12,01,19.20
2009,08,30,12,02,19.20
2009,08,30,12,03,19.20
2009,08,30,12,04,19.20
2009,08,30,12,05,19.20
2009,08,30,12,06,19.30
2009,08,30,12,07,19.30
2009,08,30,12,08,19.20
2009,08,30,12,09,19.30
2009,08,30,12,10,19.30
2009,08,30,12,11,19.40
2009,08,30,12,12,19.50
2009,08,30,12,13,19.60
2009,08,30,12,14,19.70
2009,08,30,12,15,19.70
2009,08,30,12,16,19.80
2009,08,30,12,17,19.80
2009,08,30,12,18,19.90
2009,08,30,12,19,19.90
2009,08,30,12,20,19.90
2009,08,30,12,21,20.00
2009,08,30,12,22,20.00
2009,08,30,12,23,20.10
2009,08,30,12,24,20.00
2009,08,30,12,25,20.00
2009,08,30,12,26,20.00
2009,08,30,12,27,20.00
2009,08,30,12,28,20.00
2009,08,30,12,29,20.00
2009,08,30,12,30,20.00
2009,08,30,12,31,20.00
2009,08,30,12,32,19.90
2009,08,30,12,33,19.90
2009,08,30,12,34,20.00
2009,08,30,12,35,20.10
2009,08,30,12,36,20.10
2009,08,30,12,37,20.10
2009,08,30,12,38,20.20
2009,08,30,12,39,20.20
2009,08,30,12,40,20.10
2009,08,30,12,41,20.10
2009,08,30,12,42,20.00
2009,08,30,12,43,20.00
2009,08,30,12,44,20.00
2009,08,30,12,45,19.90
2009,08,30,12,46,19.90
2009,08,30,12,47,20.00
2009,08,30,12,48,20.00
2009,08,30,12,49,20.00
2009,08,30,12,50,20.00
2009,08,30,12,51,20.10
2009,08,30,12,52,20.10
2009,08,30,12,53,20.20
2009,08,30,12,54,20.20
2009,08,30,12,55,20.20
2009,08,30,12,56,20.20
2009,08,30,12,57,20.20
2009,08,30,12,58,20.20
2009,08,30,12,59,20.20
2009,08,30,13,00,20.20
2009,08,30,13,01,20.30
2009,08,30,13,02,20.30
2009,08,30,13,03,20.30
2009,08,30,13,04,20.20
2009,08,30,13,05,20.20
2009,08,30,13,06,20.30
2009,08,30,13,07,20.20
2009,08,30,13,08,20.10
2009,08,30,13,09,20.00
2009,08,30,13,10,19.90
2009,08,30,13,11,19.90
2009,08,30,13,12,20.00
2009,08,30,13,13,20.10
2009,08,30,13,14,20.20
2009,08,30,13,15,20.30
2009,08,30,13,16,20.30
2009,08,30,13,17,20.40
2009,08,30,13,18,20.50
2009,08,30,13,19,20.60
2009,08,30,13,20,20.70
2009,08,30,13,21,20.80
2009,08,30,13,22,21.00
2009,08,30,13,23,21.10
2009,08,30,13,24,21.10
2009,08,30,13,25,21.10
2009,08,30,13,26,21.20
2009,08,30,13,27,21.20
2009,08,30,13,28,21.20
2009,08,30,13,29,21.20
2009,08,30,13,30,21.30
2009,08,30,13,31,21.30
2009,08,30,13,32,21.20
2009,08,30,13,33,21.20
2009,08,30,13,34,21.10
2009,08,30,13,35,21.10
2009,08,30,13,36,21.00
2009,08,30,13,37,20.90
2009,08,30,13,38,20.90
2009,08,30,13,39,20.80
2009,08,30,13,40,20.80
2009,08,30,13,41,20.80
2009,08,30,13,42,20.70
2009,08,30,13,43,20.70
2009,08,30,13,44,20.80
2009,08,30,13,45,20.80
2009,08,30,13,46,20.80
2009,08,30,13,47,20.80
2009,08,30,13,48,20.80
2009,08,30,13,49,20.80
2009,08,30,13,50,20.80
2009,08,30,13,51,20.90
2009,08,30,13,52,20.90
2009,08,30,13,53,20.80
2009,08,30,13,54,20.70
2009,08,30,13,55,20.70
2009,08,30,13,56,20.70
2009,08,30,13,57,20.70
2009,08,30,13,58,20.70
2009,08,30,13,59,20.70
2009,08,30,14,00,20.70
2009,08,30,14,01,20.80
2009,08,30,14,02,20.80
2009,08,30,14,03,20.90
2009,08,30,14,04,20.90
2009,08,30,14,05,20.90
2009,08,30,14,06,21.00
2009,08,30,14,07,21.10
2009,08,30,14,08,21.10
2009,08,30,14,09,21.20
2009,08,30,14,10,21.20
2009,08,30,14,11,21.20
2009,08,30,14,12,21.10
2009,08,30,14,13,21.10
2009,08,30,14,14,21.10
2009,08,30,14,15,21.10
2009,08,30,14,16,21.10
2009,08,30,14,17,21.20
2009,08,30,14,18,21.30
2009,08,30,14,19,21.20
2009,08,30,14,20,21.20
2009,08,30,14,21,21.20
2009,08,30,14,22,21.20
2009,08,30,14,23,21.20
2009,08,30,14,24,21.30
2009,08,30,14,25,21.20
2009,08,30,14,26,21.20
2009,08,30,14,27,21.30
2009,08,30,14,28,21.40
2009,08,30,14,29,21.30
2009,08,30,14,30,21.30
2009,08,30,14,31,21.30
2009,08,30,14,32,21.30
2009,08,30,14,33,21.30
2009,08,30,14,34,21.40
2009,08,30,14,35,21.40
2009,08,30,14,36,21.50
2009,08,30,14,37,21.60
2009,08,30,14,38,21.70
2009,08,30,14,39,21.70
2009,08,30,14,40,21.80
2009,08,30,14,41,21.80
2009,08,30,14,42,21.80
2009,08,30,14,43,21.80
2009,08,30,14,44,21.90
2009,08,30,14,45,21.90
2009,08,30,14,46,21.90
2009,08,30,14,47,21.90
2009,08,30,14,48,21.90
2009,08,30,14,49,22.00
2009,08,30,14,50,21.90
2009,08,30,14,51,22.00
2009,08,30,14,52,22.00
2009,08,30,14,53,22.00
2009,08,30,14,54,22.10
2009,08,30,14,55,22.10
2009,08,30,14,56,22.10
2009,08,30,14,57,22.10
2009,08,30,14,58,22.10
2009,08,30,14,59,22.10
2009,08,30,15,00,22.10
2009,08,30,15,01,22.20
2009,08,30,15,02,22.20
2009,08,30,15,03,22.30
2009,08,30,15,04,22.40
2009,08,30,15,05,22.40
2009,08,30,15,06,22.40
2009,08,30,15,07,22.50
2009,08,30,15,08,22.50
2009,08,30,15,09,22.50
2009,08,30,15,10,22.60
2009,08,30,15,11,22.60
2009,08,30,15,12,22.60
2009,08,30,15,13,22.70
2009,08,30,15,14,22.70
2009,08,30,15,15,22.70
2009,08,30,15,16,22.70
2009,08,30,15,17,22.70
2009,08,30,15,18,22.70
2009,08,30,15,19,22.60
2009,08,30,15,20,22.60
2009,08,30,15,21,22.60
2009,08,30,15,22,22.70
2009,08,30,15,23,22.80
2009,08,30,15,24,22.80
2009,08,30,15,25,22.80
2009,08,30,15,26,22.90
2009,08,30,15,27,22.90
2009,08,30,15,28,22.90
2009,08,30,15,29,22.90
2009,08,30,15,30,22.90
2009,08,30,15,31,22.90
2009,08,30,15,32,23.00
2009,08,30,15,33,23.10
2009,08,30,15,34,23.10
2009,08,30,15,35,23.00
2009,08,30,15,36,22.90
2009,08,30,15,37,22.90
2009,08,30,15,38,22.80
2009,08,30,15,39,22.80
2009,08,30,15,40,22.80
2009,08,30,15,41,22.90
2009,08,30,15,42,22.90
2009,08,30,15,43,22.90
2009,08,30,15,44,23.00
2009,08,30,15,45,23.00
2009,08,30,15,46,23.00
2009,08,30,15,47,23.10
2009,08,30,15,48,23.10
2009,08,30,15,49,23.10
2009,08,30,15,50,23.10
2009,08,30,15,51,23.20
2009,08,30,15,52,23.20
2009,08,30,15,53,23.20
2009,08,30,15,54,23.10
2009,08,30,15,55,23.20
2009,08,30,15,56,23.30
2009,08,30,15,57,23.20
2009,08,30,15,58,23.20
2009,08,30,15,59,23.20
2009,08,30,16,00,23.20
2009,08,30,16,01,23.20
2009,08,30,16,02,23.30
2009,08,30,16,03,23.30
2009,08,30,16,04,23.40
2009,08,30,16,05,23.40
2009,08,30,16,06,23.40
2009,08,30,16,07,23.40
2009,08,30,16,08,23.40
2009,08,30,16,09,23.40
2009,08,30,16,10,23.30
2009,08,30,16,11,23.30
2009,08,30,16,12,23.20
2009,08,30,16,13,23.20
2009,08,30,16,14,23.20
2009,08,30,16,15,23.20
2009,08,30,16,16,23.30
2009,08,30,16,17,23.30
2009,08,30,16,18,23.40
2009,08,30,16,19,23.50
2009,08,30,16,20,23.50
2009,08,30,16,21,23.50
2009,08,30,16,22,23.50
2009,08,30,16,23,23.40
2009,08,30,16,24,23.40
2009,08,30,16,25,23.40
2009,08,30,16,26,23.40
2009,08,30,16,27,23.40
2009,08,30,16,28,23.40
2009,08,30,16,29,23.40
2009,08,30,16,30,23.40
2009,08,30,16,31,23.50
2009,08,30,16,32,23.60
2009,08,30,16,33,23.60
2009,08,30,16,34,23.60
2009,08,30,16,35,23.60
2009,08,30,16,36,23.60
2009,08,30,16,37,23.70
2009,08,30,16,38,23.70
2009,08,30,16,39,23.70
2009,08,30,16,40,23.70
2009,08,30,16,41,23.70
2009,08,30,16,42,23.80
2009,08,30,16,43,23.70
2009,08,30,16,44,23.70
2009,08,30,16,45,23.70
2009,08,30,16,46,23.60
2009,08,30,16,47,23.60
2009,08,30,16,48,23.60
2009,08,30,16,49,23.60
2009,08,30,16,50,23.60
2009,08,30,16,51,23.60
2009,08,30,16,52,23.60
2009,08,30,16,53,23.70
2009,08,30,16,54,23.70
2009,08,30,16,55,23.80
2009,08,30,16,56,23.90
2009,08,30,16,57,24.00
2009,08,30,16,58,24.10
2009,08,30,16,59,24.10
2009,08,30,17,00,24.20
2009,08,30,17,01,24.20
2009,08,30,17,02,24.20
2009,08,30,17,03,24.20
2009,08,30,17,04,24.20
2009,08,30,17,05,24.20
2009,08,30,17,06,24.20
2009,08,30,17,07,24.20
2009,08,30,17,08,24.20
2009,08,30,17,09,24.20
2009,08,30,17,10,24.10
2009,08,30,17,11,24.10
2009,08,30,17,12,24.10
2009,08,30,17,13,24.00
2009,08,30,17,14,24.00
2009,08,30,17,15,24.00
2009,08,30,17,16,24.10
2009,08,30,17,17,24.10
2009,08,30,17,18,24.10
2009,08,30,17,19,24.20